^^
Station Historical Data
 
Daily Summary for August 31, 2016 Units:  English    Metric   Both
« Previous Day
Next Day »
Daily Weekly Monthly Yearly Custom
  Current: High: Low: Average:
Temperature: 68.6 °F 79.2 °F 68.6 °F 73.5 °F
Dew Point: 56.8 °F 70.7 °F 54.9 °F 65.4 °F
Humidity: 66% 95% 51% 77%
Wind Speed: 1.2mph 8.1mph 0.0mph 2.5mph
Wind Gust: 1.2mph 8.1mph - -
WindNorth - - East
Pressure: 30.11 in 30.11 in 30.04 in -
Precipitation: 0.00 in      
Historical Graphs
 
 
Tabular Data for August 31, 2016
Time Temperature Dew Point Pressure Wind Wind Speed Wind Gust Humidity Rainfall Rate (Hourly) solar Conditions
00:03 73.5 °F 70.7 °F 30.08 in Calm     91% 0.00 in WeatherDisplay:10.37 W/m2 RA
00:08 73.5 °F 70.7 °F 30.08 in Calm     91% 0.00 in WeatherDisplay:10.37 W/m2 RA
00:13 73.5 °F 70.7 °F 30.07 in Calm     91% 0.00 in WeatherDisplay:10.37 W/m2 CLR
00:18 73.4 °F 70.6 °F 30.07 in Calm     91% 0.00 in WeatherDisplay:10.37 W/m2 CLR
00:23 73.3 °F 70.5 °F 30.07 in Calm     91% 0.00 in WeatherDisplay:10.37 W/m2 CLR
00:28 73.3 °F 70.5 °F 30.07 in Calm     91% 0.00 in WeatherDisplay:10.37 W/m2 CLR
00:33 73.2 °F 70.4 °F 30.07 in Calm     91% 0.00 in WeatherDisplay:10.37 W/m2 CLR
00:38 73.1 °F 70.3 °F 30.07 in Calm     91% 0.00 in WeatherDisplay:10.37 W/m2 CLR
00:43 73.1 °F 70.3 °F 30.07 in Calm     91% 0.00 in WeatherDisplay:10.37 W/m2 CLR
00:48 73.0 °F 70.2 °F 30.07 in Calm     91% 0.00 in WeatherDisplay:10.37 W/m2 CLR
00:53 72.9 °F 70.1 °F 30.07 in Calm     91% 0.00 in WeatherDisplay:10.37 W/m2 CLR
00:58 72.8 °F 70.0 °F 30.07 in Calm     91% 0.00 in WeatherDisplay:10.37 W/m2 CLR
01:03 72.7 °F 69.9 °F 30.07 in Calm     91% 0.00 in WeatherDisplay:10.37 W/m2 CLR
01:08 72.6 °F 69.8 °F 30.07 in Calm     91% 0.00 in WeatherDisplay:10.37 W/m2 CLR
01:13 72.4 °F 69.6 °F 30.07 in Calm     91% 0.00 in WeatherDisplay:10.37 W/m2 CLR
01:18 72.3 °F 69.5 °F 30.07 in Calm     91% 0.00 in WeatherDisplay:10.37 W/m2 CLR
01:23 72.2 °F 69.4 °F 30.07 in Calm     91% 0.00 in WeatherDisplay:10.37 W/m2 CLR
01:28 72.1 °F 69.3 °F 30.07 in Calm     91% 0.00 in WeatherDisplay:10.37 W/m2 CLR
01:33 72.0 °F 69.2 °F 30.07 in Calm     91% 0.00 in WeatherDisplay:10.37 W/m2 CLR
01:38 71.9 °F 69.1 °F 30.07 in Calm     91% 0.00 in WeatherDisplay:10.37 W/m2 CLR
01:43 71.7 °F 69.3 °F 30.07 in Calm     92% 0.00 in WeatherDisplay:10.37 W/m2 CLR
01:48 71.6 °F 69.2 °F 30.06 in Calm     92% 0.00 in WeatherDisplay:10.37 W/m2 CLR
01:53 71.4 °F 69.0 °F 30.06 in Calm     92% 0.00 in WeatherDisplay:10.37 W/m2 CLR
01:58 71.3 °F 69.2 °F 30.06 in Calm     93% 0.00 in WeatherDisplay:10.37 W/m2 CLR
02:03 71.2 °F 68.8 °F 30.06 in Calm     92% 0.00 in WeatherDisplay:10.37 W/m2 CLR
02:08 71.2 °F 68.8 °F 30.06 in Calm     92% 0.00 in WeatherDisplay:10.37 W/m2 CLR
02:13 71.1 °F 68.7 °F 30.07 in Calm     92% 0.00 in WeatherDisplay:10.37 W/m2 CLR
02:18 71.1 °F 68.7 °F 30.06 in Calm     92% 0.00 in WeatherDisplay:10.37 W/m2 CLR
02:23 71.0 °F 68.6 °F 30.06 in Calm     92% 0.00 in WeatherDisplay:10.37 W/m2 CLR
02:28 70.9 °F 68.5 °F 30.06 in NW 1.2 mph 1.2 mph 92% 0.00 in WeatherDisplay:10.37 W/m2 CLR
02:33 70.9 °F 68.5 °F 30.06 in NW 2.3 mph 2.3 mph 92% 0.00 in WeatherDisplay:10.37 W/m2 CLR
02:38 70.9 °F 68.5 °F 30.06 in NW 2.0 mph 2.0 mph 92% 0.00 in WeatherDisplay:10.37 W/m2 CLR
02:43 70.9 °F 68.5 °F 30.06 in Calm     92% 0.00 in WeatherDisplay:10.37 W/m2 CLR
02:48 70.8 °F 68.4 °F 30.06 in Calm     92% 0.00 in WeatherDisplay:10.37 W/m2 CLR
02:53 70.8 °F 68.4 °F 30.06 in NW 1.2 mph 1.2 mph 92% 0.00 in WeatherDisplay:10.37 W/m2 CLR
02:58 70.7 °F 68.3 °F 30.06 in Calm     92% 0.00 in WeatherDisplay:10.37 W/m2 CLR
03:03 70.6 °F 68.2 °F 30.06 in Calm     92% 0.00 in WeatherDisplay:10.37 W/m2 CLR
03:08 70.5 °F 68.1 °F 30.06 in NW 1.2 mph   92% 0.00 in WeatherDisplay:10.37 W/m2 CLR
03:13 70.4 °F 68.3 °F 30.06 in Calm     93% 0.00 in WeatherDisplay:10.37 W/m2 CLR
03:18 70.3 °F 68.2 °F 30.06 in Calm     93% 0.00 in WeatherDisplay:10.37 W/m2 CLR
03:23 70.2 °F 68.1 °F 30.06 in Calm     93% 0.00 in WeatherDisplay:10.37 W/m2 CLR
03:28 70.1 °F 68.0 °F 30.06 in Calm     93% 0.00 in WeatherDisplay:10.37 W/m2 CLR
03:33 70.1 °F 68.3 °F 30.06 in Calm     94% 0.00 in WeatherDisplay:10.37 W/m2 CLR
03:38 70.1 °F 68.3 °F 30.06 in Calm     94% 0.00 in WeatherDisplay:10.37 W/m2 CLR
03:43 69.9 °F 68.1 °F 30.06 in Calm     94% 0.00 in WeatherDisplay:10.37 W/m2 CLR
03:48 69.8 °F 68.0 °F 30.05 in Calm     94% 0.00 in WeatherDisplay:10.37 W/m2 CLR
03:53 69.7 °F 67.9 °F 30.05 in Calm     94% 0.00 in WeatherDisplay:10.37 W/m2 CLR
03:58 69.6 °F 67.8 °F 30.05 in Calm     94% 0.00 in WeatherDisplay:10.37 W/m2 CLR
04:08 69.5 °F 68.0 °F 30.05 in NW 1.2 mph   95% 0.00 in WeatherDisplay:10.37 W/m2 CLR
04:13 69.5 °F 68.0 °F 30.05 in Calm     95% 0.00 in WeatherDisplay:10.37 W/m2 CLR
04:18 69.5 °F 68.0 °F 30.06 in Calm     95% 0.00 in WeatherDisplay:10.37 W/m2 CLR
04:23 69.4 °F 67.9 °F 30.05 in Calm     95% 0.00 in WeatherDisplay:10.37 W/m2 CLR
04:28 69.4 °F 67.9 °F 30.05 in Calm     95% 0.00 in WeatherDisplay:10.37 W/m2 CLR
04:33 69.4 °F 67.9 °F 30.05 in Calm     95% 0.00 in WeatherDisplay:10.37 W/m2 CLR
04:38 69.4 °F 67.9 °F 30.05 in Calm     95% 0.00 in WeatherDisplay:10.37 W/m2 CLR
04:43 69.4 °F 67.9 °F 30.05 in Calm     95% 0.00 in WeatherDisplay:10.37 W/m2 CLR
04:48 69.4 °F 67.9 °F 30.05 in Calm     95% 0.00 in WeatherDisplay:10.37 W/m2 CLR
04:53 69.4 °F 67.9 °F 30.05 in Calm     95% 0.00 in WeatherDisplay:10.37 W/m2 CLR
04:58 69.4 °F 67.9 °F 30.04 in Calm     95% 0.00 in WeatherDisplay:10.37 W/m2 CLR
05:03 69.5 °F 68.0 °F 30.05 in Calm     95% 0.00 in WeatherDisplay:10.37 W/m2 CLR
05:08 69.5 °F 68.0 °F 30.05 in Calm     95% 0.00 in WeatherDisplay:10.37 W/m2 CLR
05:13 69.5 °F 68.0 °F 30.05 in Calm     95% 0.00 in WeatherDisplay:10.37 W/m2 CLR
05:18 69.6 °F 68.1 °F 30.05 in Calm     95% 0.00 in WeatherDisplay:10.37 W/m2 CLR
05:23 69.6 °F 68.1 °F 30.05 in Calm     95% 0.00 in WeatherDisplay:10.37 W/m2 CLR
05:28 69.6 °F 68.1 °F 30.05 in Calm     95% 0.00 in WeatherDisplay:10.37 W/m2 CLR
05:33 69.6 °F 68.1 °F 30.05 in Calm     95% 0.00 in WeatherDisplay:10.37 W/m2 CLR
05:38 69.6 °F 68.1 °F 30.06 in Calm     95% 0.00 in WeatherDisplay:10.37 W/m2 CLR
05:43 69.7 °F 68.2 °F 30.05 in Calm     95% 0.00 in WeatherDisplay:10.37 W/m2 CLR
05:48 69.7 °F 68.2 °F 30.06 in Calm     95% 0.00 in WeatherDisplay:10.37 W/m2 CLR
05:53 69.7 °F 68.2 °F 30.06 in NW 1.2 mph   95% 0.00 in WeatherDisplay:10.37 W/m2 CLR
05:58 69.7 °F 67.9 °F 30.06 in Calm     94% 0.00 in WeatherDisplay:10.37 W/m2 CLR
06:03 69.7 °F 67.9 °F 30.06 in Calm     94% 0.00 in WeatherDisplay:10.37 W/m2 CLR
06:08 69.7 °F 67.9 °F 30.06 in NW 1.2 mph 1.2 mph 94% 0.00 in WeatherDisplay:10.37 W/m2 CLR
06:13 69.7 °F 67.9 °F 30.06 in NW 1.2 mph 1.2 mph 94% 0.00 in WeatherDisplay:10.37 W/m2 CLR
06:18 69.7 °F 67.9 °F 30.06 in NW 2.3 mph 2.3 mph 94% 0.00 in WeatherDisplay:10.37 W/m2 CLR
06:23 69.7 °F 67.9 °F 30.06 in NW 2.3 mph 2.3 mph 94% 0.00 in WeatherDisplay:10.37 W/m2 SCT
06:28 69.8 °F 68.0 °F 30.07 in NW 2.0 mph 2.0 mph 94% 0.00 in WeatherDisplay:10.37 W/m2 SCT
06:33 69.9 °F 68.1 °F 30.07 in NNE 2.3 mph 2.3 mph 94% 0.00 in WeatherDisplay:10.37 W/m2 SCT
06:38 69.9 °F 68.1 °F 30.07 in East 2.3 mph 2.3 mph 94% 0.00 in WeatherDisplay:10.37 W/m2 SCT
06:43 70.0 °F 68.2 °F 30.07 in ENE 2.3 mph 2.3 mph 94% 0.00 in WeatherDisplay:10.37 W/m2 SCT
06:48 70.0 °F 67.9 °F 30.07 in NNE 3.5 mph 3.5 mph 93% 0.00 in WeatherDisplay:10.37 W/m2 SCT
06:53 70.1 °F 68.0 °F 30.07 in NNE 3.5 mph 3.5 mph 93% 0.00 in WeatherDisplay:10.37 W/m2 SCT
06:58 70.1 °F 67.7 °F 30.08 in NNE 3.5 mph 3.5 mph 92% 0.00 in WeatherDisplay:10.37 W/m2 SCT
07:03 70.2 °F 68.1 °F 30.08 in NE 3.5 mph 3.5 mph 93% 0.00 in WeatherDisplay:10.37 W/m2 SCT
07:08 70.3 °F 67.9 °F 30.08 in North 3.5 mph 3.5 mph 92% 0.00 in WeatherDisplay:10.37 W/m2 SCT
07:13 70.4 °F 68.0 °F 30.08 in NE 3.5 mph 3.5 mph 92% 0.00 in WeatherDisplay:10.37 W/m2 SCT
07:18 70.6 °F 68.2 °F 30.07 in North 2.3 mph 2.3 mph 92% 0.00 in WeatherDisplay:10.37 W/m2 SCT
07:23 70.7 °F 68.3 °F 30.07 in NNE 2.3 mph 2.3 mph 92% 0.00 in WeatherDisplay:10.37 W/m2 SCT
07:28 70.9 °F 68.5 °F 30.07 in NNW 3.5 mph 3.5 mph 92% 0.00 in WeatherDisplay:10.37 W/m2 SCT
07:33 71.0 °F 68.2 °F 30.07 in North 2.3 mph 2.3 mph 91% 0.00 in WeatherDisplay:10.37 W/m2 BKN
07:38 71.1 °F 68.3 °F 30.07 in NNE 2.3 mph 2.3 mph 91% 0.00 in WeatherDisplay:10.37 W/m2 BKN
07:43 71.1 °F 68.0 °F 30.07 in North 2.3 mph 2.3 mph 90% 0.00 in WeatherDisplay:10.37 W/m2 SCT
07:48 71.1 °F 68.0 °F 30.07 in North 2.3 mph 2.3 mph 90% 0.00 in WeatherDisplay:10.37 W/m2 SCT
07:53 71.2 °F 68.1 °F 30.07 in North 2.3 mph 2.3 mph 90% 0.00 in WeatherDisplay:10.37 W/m2 SCT
07:58 71.3 °F 68.2 °F 30.07 in North 2.3 mph 2.3 mph 90% 0.00 in WeatherDisplay:10.37 W/m2 SCT
08:03 71.5 °F 68.1 °F 30.07 in North 2.3 mph 2.3 mph 89% 0.00 in WeatherDisplay:10.37 W/m2 CLR
08:08 71.6 °F 68.2 °F 30.07 in NE 2.3 mph 2.3 mph 89% 0.00 in WeatherDisplay:10.37 W/m2 CLR
08:13 71.6 °F 67.9 °F 30.07 in NNE 3.5 mph 3.5 mph 88% 0.00 in WeatherDisplay:10.37 W/m2 CLR
08:18 71.7 °F 68.3 °F 30.08 in NNE 1.2 mph 1.2 mph 89% 0.00 in WeatherDisplay:10.37 W/m2 CLR
08:23 71.7 °F 68.0 °F 30.08 in NNE 2.3 mph 2.3 mph 88% 0.00 in WeatherDisplay:10.37 W/m2 CLR
08:28 71.7 °F 68.0 °F 30.08 in NNE 3.5 mph 3.5 mph 88% 0.00 in WeatherDisplay:10.37 W/m2 CLR
08:33 71.6 °F 67.5 °F 30.08 in NNE 2.3 mph 2.3 mph 87% 0.00 in WeatherDisplay:10.37 W/m2 CLR
08:38 71.5 °F 67.4 °F 30.08 in North 2.3 mph 2.3 mph 87% 0.00 in WeatherDisplay:10.37 W/m2 CLR
08:43 71.6 °F 67.2 °F 30.08 in NE 2.3 mph 2.3 mph 86% 0.00 in WeatherDisplay:10.37 W/m2 CLR
08:48 71.8 °F 67.4 °F 30.08 in NNE 3.5 mph 3.5 mph 86% 0.00 in WeatherDisplay:10.37 W/m2 CLR
08:53 72.1 °F 67.7 °F 30.08 in NNE 2.3 mph 2.3 mph 86% 0.00 in WeatherDisplay:10.37 W/m2 CLR
08:58 72.4 °F 68.0 °F 30.08 in ENE 3.5 mph 3.5 mph 86% 0.00 in WeatherDisplay:10.37 W/m2 CLR
09:03 72.7 °F 67.6 °F 30.08 in NNE 3.5 mph 3.5 mph 84% 0.00 in WeatherDisplay:10.37 W/m2 CLR
09:08 73.0 °F 67.5 °F 30.08 in North 3.5 mph 3.5 mph 83% 0.00 in WeatherDisplay:10.37 W/m2 CLR
09:13 73.3 °F 67.8 °F 30.08 in NNW 3.5 mph 3.5 mph 83% 0.00 in WeatherDisplay:10.37 W/m2 CLR
09:18 73.8 °F 68.3 °F 30.08 in ESE 3.5 mph 3.5 mph 83% 0.00 in WeatherDisplay:10.37 W/m2 CLR
09:23 74.3 °F 68.1 °F 30.08 in NE 3.5 mph 3.5 mph 81% 0.00 in WeatherDisplay:10.37 W/m2 CLR
09:28 74.8 °F 68.2 °F 30.07 in NNE 3.5 mph 3.5 mph 80% 0.00 in WeatherDisplay:10.37 W/m2 CLR
09:33 75.1 °F 68.5 °F 30.08 in North 2.3 mph 2.3 mph 80% 0.00 in WeatherDisplay:10.37 W/m2 CLR
09:38 75.5 °F 68.9 °F 30.08 in NE 3.5 mph 3.5 mph 80% 0.00 in WeatherDisplay:10.37 W/m2 CLR
09:43 75.8 °F 69.2 °F 30.08 in ENE 2.3 mph 2.3 mph 80% 0.00 in WeatherDisplay:10.37 W/m2 CLR
09:48 76.1 °F 68.7 °F 30.08 in North 3.0 mph 3.0 mph 78% 0.00 in WeatherDisplay:10.37 W/m2 CLR
09:53 76.1 °F 68.0 °F 30.08 in NNE 4.6 mph 4.6 mph 76% 0.00 in WeatherDisplay:10.37 W/m2 CLR
09:58 76.4 °F 68.3 °F 30.08 in ENE 6.9 mph 6.9 mph 76% 0.00 in WeatherDisplay:10.37 W/m2 CLR
10:03 76.8 °F 68.7 °F 30.08 in NNE 3.5 mph 3.5 mph 76% 0.00 in WeatherDisplay:10.37 W/m2 CLR
10:08 77.0 °F 68.9 °F 30.08 in NE 3.5 mph 3.5 mph 76% 0.00 in WeatherDisplay:10.37 W/m2 CLR
10:13 77.0 °F 68.5 °F 30.08 in NE 4.6 mph 4.6 mph 75% 0.00 in WeatherDisplay:10.37 W/m2 CLR
10:18 77.0 °F 68.1 °F 30.08 in NNE 3.0 mph 3.0 mph 74% 0.00 in WeatherDisplay:10.37 W/m2 CLR
10:23 76.9 °F 68.0 °F 30.08 in NNE 2.3 mph 2.3 mph 74% 0.00 in WeatherDisplay:10.37 W/m2 CLR
10:28 77.0 °F 68.5 °F 30.08 in NE 3.5 mph 3.5 mph 75% 0.00 in WeatherDisplay:10.37 W/m2 CLR
10:33 77.1 °F 68.2 °F 30.08 in NE 2.3 mph 2.3 mph 74% 0.00 in WeatherDisplay:10.37 W/m2 CLR
10:38 77.6 °F 69.0 °F 30.08 in NE 3.5 mph 3.5 mph 75% 0.00 in WeatherDisplay:10.37 W/m2 CLR
10:43 77.8 °F 68.8 °F 30.08 in NNE 2.0 mph 2.0 mph 74% 0.00 in WeatherDisplay:10.37 W/m2 CLR
10:48 78.0 °F 69.0 °F 30.08 in NE 5.0 mph 5.0 mph 74% 0.00 in WeatherDisplay:10.37 W/m2 CLR
10:53 78.3 °F 68.9 °F 30.08 in East 2.3 mph 2.3 mph 73% 0.00 in WeatherDisplay:10.37 W/m2 CLR
10:58 78.2 °F 68.0 °F 30.08 in NE 3.5 mph 3.5 mph 71% 0.00 in WeatherDisplay:10.37 W/m2 CLR
11:03 78.5 °F 69.9 °F 30.09 in East 2.3 mph 2.3 mph 75% 0.00 in WeatherDisplay:10.37 W/m2 CLR
11:08 78.6 °F 67.6 °F 30.09 in NW 3.5 mph 3.5 mph 69% 0.00 in WeatherDisplay:10.37 W/m2 CLR
11:13 78.5 °F 68.3 °F 30.08 in North 3.5 mph 3.5 mph 71% 0.00 in WeatherDisplay:10.37 W/m2 CLR
11:18 78.7 °F 69.3 °F 30.09 in NNE 4.0 mph 4.0 mph 73% 0.00 in WeatherDisplay:10.37 W/m2 CLR
11:23 79.0 °F 69.6 °F 30.08 in NNE 3.5 mph 3.5 mph 73% 0.00 in WeatherDisplay:10.37 W/m2 CLR
11:28 79.2 °F 67.7 °F 30.08 in North 4.6 mph 4.6 mph 68% 0.00 in WeatherDisplay:10.37 W/m2 CLR
11:33 79.2 °F 68.6 °F 30.08 in NNW 3.5 mph 3.5 mph 70% 0.00 in WeatherDisplay:10.37 W/m2 CLR
11:38 79.2 °F 67.7 °F 30.08 in NNW 4.0 mph 4.0 mph 68% 0.00 in WeatherDisplay:10.37 W/m2 CLR
11:43 79.1 °F 68.1 °F 30.08 in NW 3.0 mph 3.0 mph 69% 0.00 in WeatherDisplay:10.37 W/m2 SCT
11:48 78.9 °F 67.4 °F 30.08 in North 3.5 mph 3.5 mph 68% 0.00 in WeatherDisplay:10.37 W/m2 SCT
11:53 79.0 °F 68.4 °F 30.08 in North 2.3 mph 2.3 mph 70% 0.00 in WeatherDisplay:10.37 W/m2 SCT
11:58 78.8 °F 66.9 °F 30.08 in North 3.5 mph 3.5 mph 67% 0.00 in WeatherDisplay:10.37 W/m2 SCT
12:03 78.7 °F 66.4 °F 30.08 in NNE 3.5 mph 3.5 mph 66% 0.00 in WeatherDisplay:10.37 W/m2 SCT
12:08 78.6 °F 67.2 °F 30.08 in NNE 3.5 mph 3.5 mph 68% 0.00 in WeatherDisplay:10.37 W/m2 SCT
12:13 78.6 °F 66.7 °F 30.08 in NE 4.6 mph 4.6 mph 67% 0.00 in WeatherDisplay:10.37 W/m2 SCT
12:18 78.5 °F 67.1 °F 30.08 in NE 4.0 mph 4.0 mph 68% 0.00 in WeatherDisplay:10.37 W/m2 SCT
12:23 78.5 °F 65.8 °F 30.08 in NNE 3.5 mph 3.5 mph 65% 0.00 in WeatherDisplay:10.37 W/m2 SCT
12:28 78.4 °F 66.1 °F 30.08 in North 3.0 mph 3.0 mph 66% 0.00 in WeatherDisplay:10.37 W/m2 SCT
12:33 78.0 °F 64.4 °F 30.09 in North 3.5 mph 3.5 mph 63% 0.00 in WeatherDisplay:10.37 W/m2 BKN
12:38 77.8 °F 65.1 °F 30.08 in North 4.6 mph 4.6 mph 65% 0.00 in WeatherDisplay:10.37 W/m2 BKN
12:43 77.9 °F 66.5 °F 30.08 in North 3.0 mph 3.0 mph 68% 0.00 in WeatherDisplay:10.37 W/m2 BKN
12:48 78.2 °F 65.0 °F 30.08 in North 6.0 mph 6.0 mph 64% 0.00 in WeatherDisplay:10.37 W/m2 BKN
12:53 78.1 °F 65.4 °F 30.08 in NNE 2.3 mph 2.3 mph 65% 0.00 in WeatherDisplay:10.37 W/m2 SCT
12:58 77.9 °F 65.2 °F 30.08 in North 3.5 mph 3.5 mph 65% 0.00 in WeatherDisplay:10.37 W/m2 SCT
13:03 77.9 °F 65.6 °F 30.08 in NNE 3.5 mph 3.5 mph 66% 0.00 in WeatherDisplay:10.37 W/m2 SCT
13:08 78.0 °F 65.7 °F 30.08 in NNE 4.0 mph 4.0 mph 66% 0.00 in WeatherDisplay:10.37 W/m2 SCT
13:13 78.0 °F 67.0 °F 30.08 in ENE 3.5 mph 3.5 mph 69% 0.00 in WeatherDisplay:10.37 W/m2 CLR
13:18 77.9 °F 65.2 °F 30.08 in NNE 3.5 mph 3.5 mph 65% 0.00 in WeatherDisplay:10.37 W/m2 CLR
13:23 77.8 °F 65.5 °F 30.08 in NE 3.5 mph 3.5 mph 66% 0.00 in WeatherDisplay:10.37 W/m2 CLR
13:28 77.7 °F 64.5 °F 30.08 in North 3.5 mph 3.5 mph 64% 0.00 in WeatherDisplay:10.37 W/m2 CLR
13:33 77.8 °F 64.6 °F 30.08 in NE 6.9 mph 6.9 mph 64% 0.00 in WeatherDisplay:10.37 W/m2 SCT
13:38 78.0 °F 64.8 °F 30.08 in NNE 3.5 mph 3.5 mph 64% 0.00 in WeatherDisplay:10.37 W/m2 SCT
13:43 78.0 °F 64.8 °F 30.08 in NNE 3.5 mph 3.5 mph 64% 0.00 in WeatherDisplay:10.37 W/m2 BKN
13:48 78.1 °F 64.9 °F 30.08 in NE 4.0 mph 4.0 mph 64% 0.00 in WeatherDisplay:10.37 W/m2 BKN
13:53 78.1 °F 65.4 °F 30.08 in NE 4.0 mph 4.0 mph 65% 0.00 in WeatherDisplay:10.37 W/m2 BKN
13:58 78.1 °F 65.8 °F 30.08 in ENE 4.0 mph 4.0 mph 66% 0.00 in WeatherDisplay:10.37 W/m2 BKN
14:03 78.0 °F 65.3 °F 30.08 in NE 2.3 mph 2.3 mph 65% 0.00 in WeatherDisplay:10.37 W/m2 BKN
14:08 78.0 °F 65.3 °F 30.08 in NNE 2.3 mph 2.3 mph 65% 0.00 in WeatherDisplay:10.37 W/m2 BKN
14:13 77.9 °F 65.2 °F 30.08 in NNE 3.0 mph 3.0 mph 65% 0.00 in WeatherDisplay:10.37 W/m2 SCT
14:18 77.8 °F 65.5 °F 30.08 in NE 3.5 mph 3.5 mph 66% 0.00 in WeatherDisplay:10.37 W/m2 SCT
14:23 77.7 °F 65.0 °F 30.08 in NE 4.0 mph 4.0 mph 65% 0.00 in WeatherDisplay:10.37 W/m2 SCT
14:28 77.6 °F 65.3 °F 30.08 in North 3.5 mph 3.5 mph 66% 0.00 in WeatherDisplay:10.37 W/m2 SCT
14:33 77.7 °F 65.0 °F 30.08 in NNE 4.6 mph 4.6 mph 65% 0.00 in WeatherDisplay:10.37 W/m2 SCT
14:38 77.7 °F 65.9 °F 30.08 in NE 3.5 mph 3.5 mph 67% 0.00 in WeatherDisplay:10.37 W/m2 SCT
14:43 77.7 °F 65.9 °F 30.07 in North 3.5 mph 3.5 mph 67% 0.00 in WeatherDisplay:10.37 W/m2 SCT
14:48 77.9 °F 65.2 °F 30.07 in NE 3.5 mph 3.5 mph 65% 0.00 in WeatherDisplay:10.37 W/m2 SCT
14:53 78.0 °F 65.7 °F 30.07 in NNE 3.0 mph 3.0 mph 66% 0.00 in WeatherDisplay:10.37 W/m2 SCT
14:58 78.2 °F 65.9 °F 30.07 in North 4.6 mph 4.6 mph 66% 0.00 in WeatherDisplay:10.37 W/m2 SCT
15:03 78.1 °F 64.5 °F 30.07 in NNE 3.5 mph 3.5 mph 63% 0.00 in WeatherDisplay:10.37 W/m2 SCT
15:08 77.9 °F 65.2 °F 30.07 in ENE 4.0 mph 4.0 mph 65% 0.00 in WeatherDisplay:10.37 W/m2 SCT
15:13 77.7 °F 65.0 °F 30.07 in NE 8.1 mph 8.1 mph 65% 0.00 in WeatherDisplay:10.37 W/m2 SCT
15:18 77.6 °F 65.3 °F 30.07 in NE 8.1 mph 8.1 mph 66% 0.00 in WeatherDisplay:10.37 W/m2 SCT
15:23 77.4 °F 64.3 °F 30.07 in NE 3.5 mph 3.5 mph 64% 0.00 in WeatherDisplay:10.37 W/m2 BKN
15:33 77.1 °F 65.3 °F 30.07 in NE 6.0 mph 6.0 mph 67% 0.00 in WeatherDisplay:10.37 W/m2 BKN
15:38 77.0 °F 65.2 °F 30.07 in ENE 5.0 mph 5.0 mph 67% 0.00 in WeatherDisplay:10.37 W/m2 BKN
15:43 76.9 °F 65.1 °F 30.07 in North 3.5 mph 3.5 mph 67% 0.00 in WeatherDisplay:10.37 W/m2 BKN
15:48 76.9 °F 65.5 °F 30.07 in North 3.5 mph 3.5 mph 68% 0.00 in WeatherDisplay:10.37 W/m2 BKN
15:53 76.7 °F 64.9 °F 30.07 in North 3.5 mph 3.5 mph 67% 0.00 in WeatherDisplay:10.37 W/m2 BKN
15:58 76.4 °F 64.6 °F 30.07 in NE 4.6 mph 4.6 mph 67% 0.00 in WeatherDisplay:10.37 W/m2 BKN
16:03 76.3 °F 64.1 °F 30.07 in North 4.0 mph 4.0 mph 66% 0.00 in WeatherDisplay:10.37 W/m2 BKN
16:08 76.5 °F 64.7 °F 30.07 in ENE 4.0 mph 4.0 mph 67% 0.00 in WeatherDisplay:10.37 W/m2 BKN
16:13 76.4 °F 63.8 °F 30.08 in North 4.6 mph 4.6 mph 65% 0.00 in WeatherDisplay:10.37 W/m2 BKN
16:18 76.1 °F 63.0 °F 30.08 in NNE 3.5 mph 3.5 mph 64% 0.00 in WeatherDisplay:10.37 W/m2 BKN
16:28 76.1 °F 62.6 °F 30.07 in NNE 4.0 mph 4.0 mph 63% 0.00 in WeatherDisplay:10.37 W/m2 BKN
16:33 76.1 °F 63.0 °F 30.07 in NNW 3.5 mph 3.5 mph 64% 0.00 in WeatherDisplay:10.37 W/m2 SCT
16:38 76.1 °F 61.7 °F 30.07 in NNW 4.0 mph 4.0 mph 61% 0.00 in WeatherDisplay:10.37 W/m2 SCT
16:43 76.1 °F 61.7 °F 30.07 in North 3.5 mph 3.5 mph 61% 0.00 in WeatherDisplay:10.37 W/m2 SCT
16:48 75.8 °F 60.9 °F 30.07 in North 4.6 mph 4.6 mph 60% 0.00 in WeatherDisplay:10.37 W/m2 SCT
16:53 75.8 °F 61.4 °F 30.07 in NNE 4.0 mph 4.0 mph 61% 0.00 in WeatherDisplay:10.37 W/m2 CLR
16:58 75.8 °F 60.9 °F 30.07 in NNE 3.5 mph 3.5 mph 60% 0.00 in WeatherDisplay:10.37 W/m2 CLR
17:03 75.7 °F 58.9 °F 30.08 in North 4.6 mph 4.6 mph 56% 0.00 in WeatherDisplay:10.37 W/m2 CLR
17:08 75.5 °F 58.2 °F 30.08 in North 3.5 mph 3.5 mph 55% 0.00 in WeatherDisplay:10.37 W/m2 CLR
17:13 75.4 °F 58.1 °F 30.08 in NNE 4.6 mph 4.6 mph 55% 0.00 in WeatherDisplay:10.37 W/m2 CLR
17:18 75.1 °F 56.3 °F 30.08 in NNW 6.9 mph 6.9 mph 52% 0.00 in WeatherDisplay:10.37 W/m2 CLR
17:23 74.7 °F 56.4 °F 30.08 in NNE 3.5 mph 3.5 mph 53% 0.00 in WeatherDisplay:10.37 W/m2 CLR
17:28 74.2 °F 54.9 °F 30.09 in NNE 6.0 mph 6.0 mph 51% 0.00 in WeatherDisplay:10.37 W/m2 CLR
17:33 73.9 °F 55.7 °F 30.08 in ENE 3.5 mph 3.5 mph 53% 0.00 in WeatherDisplay:10.37 W/m2 CLR
17:38 73.6 °F 55.4 °F 30.09 in ENE 5.8 mph 5.8 mph 53% 0.00 in WeatherDisplay:10.37 W/m2 CLR
17:43 73.3 °F 56.2 °F 30.09 in North 3.5 mph 3.5 mph 55% 0.00 in WeatherDisplay:10.37 W/m2 CLR
17:48 73.3 °F 56.2 °F 30.08 in NNE 4.6 mph 4.6 mph 55% 0.00 in WeatherDisplay:10.37 W/m2 CLR
17:53 73.3 °F 55.6 °F 30.09 in North 5.8 mph 5.8 mph 54% 0.00 in WeatherDisplay:10.37 W/m2 CLR
17:58 73.3 °F 55.6 °F 30.08 in ENE 3.5 mph 3.5 mph 54% 0.00 in WeatherDisplay:10.37 W/m2 CLR
18:03 73.1 °F 56.0 °F 30.09 in NNE 2.3 mph 2.3 mph 55% 0.00 in WeatherDisplay:10.37 W/m2 CLR
18:08 73.0 °F 56.4 °F 30.09 in NE 2.3 mph 2.3 mph 56% 0.00 in WeatherDisplay:10.37 W/m2 CLR
18:13 72.9 °F 55.8 °F 30.09 in North 4.0 mph 4.0 mph 55% 0.00 in WeatherDisplay:10.37 W/m2 CLR
18:18 72.9 °F 56.3 °F 30.09 in NE 3.5 mph 3.5 mph 56% 0.00 in WeatherDisplay:10.37 W/m2 CLR
18:23 72.8 °F 56.2 °F 30.09 in North 3.0 mph 3.0 mph 56% 0.00 in WeatherDisplay:10.37 W/m2 CLR
18:28 72.7 °F 55.6 °F 30.09 in ENE 3.5 mph 3.5 mph 55% 0.00 in WeatherDisplay:10.37 W/m2 CLR
18:33 72.7 °F 56.6 °F 30.09 in NNE 3.5 mph 3.5 mph 57% 0.00 in WeatherDisplay:10.37 W/m2 CLR
18:38 72.6 °F 57.0 °F 30.09 in NE 3.5 mph 3.5 mph 58% 0.00 in WeatherDisplay:10.37 W/m2 CLR
18:43 72.4 °F 55.8 °F 30.09 in NNE 3.5 mph 3.5 mph 56% 0.00 in WeatherDisplay:10.37 W/m2 CLR
18:48 72.3 °F 56.7 °F 30.09 in NE 2.3 mph 2.3 mph 58% 0.00 in WeatherDisplay:10.37 W/m2 CLR
18:53 72.1 °F 56.0 °F 30.09 in NNE 2.3 mph 2.3 mph 57% 0.00 in WeatherDisplay:10.37 W/m2 CLR
18:58 71.9 °F 56.8 °F 30.09 in North 2.3 mph 2.3 mph 59% 0.00 in WeatherDisplay:10.37 W/m2 CLR
19:03 71.7 °F 57.1 °F 30.09 in NNE 2.3 mph 2.3 mph 60% 0.00 in WeatherDisplay:10.37 W/m2 CLR
19:08 71.5 °F 56.9 °F 30.09 in NNE 2.3 mph 2.3 mph 60% 0.00 in WeatherDisplay:10.37 W/m2 CLR
19:13 71.2 °F 56.6 °F 30.09 in NNE 2.3 mph 2.3 mph 60% 0.00 in WeatherDisplay:10.37 W/m2 CLR
19:18 71.0 °F 56.9 °F 30.09 in NE 3.5 mph 3.5 mph 61% 0.00 in WeatherDisplay:10.37 W/m2 CLR
19:23 70.7 °F 56.6 °F 30.09 in NE 2.3 mph 2.3 mph 61% 0.00 in WeatherDisplay:10.37 W/m2 CLR
19:28 70.3 °F 57.1 °F 30.09 in NNE 2.3 mph 2.3 mph 63% 0.00 in WeatherDisplay:10.37 W/m2 CLR
19:33 70.1 °F 56.5 °F 30.10 in NE 3.5 mph 3.5 mph 62% 0.00 in WeatherDisplay:10.37 W/m2 CLR
19:38 69.9 °F 56.3 °F 30.10 in ENE 3.5 mph 3.5 mph 62% 0.00 in WeatherDisplay:10.37 W/m2 CLR
19:43 69.7 °F 56.5 °F 30.10 in NNE 2.3 mph 2.3 mph 63% 0.00 in WeatherDisplay:10.37 W/m2 CLR
19:48 69.6 °F 56.4 °F 30.10 in NE 3.5 mph 3.5 mph 63% 0.00 in WeatherDisplay:10.37 W/m2 CLR
19:53 69.5 °F 56.3 °F 30.10 in North 3.5 mph 3.5 mph 63% 0.00 in WeatherDisplay:10.37 W/m2 CLR
19:58 69.4 °F 56.7 °F 30.10 in North 2.0 mph 2.0 mph 64% 0.00 in WeatherDisplay:10.37 W/m2 CLR
20:03 69.2 °F 56.9 °F 30.10 in NNE 2.3 mph 2.3 mph 65% 0.00 in WeatherDisplay:10.37 W/m2 CLR
20:08 69.0 °F 56.7 °F 30.11 in NE 3.5 mph 3.5 mph 65% 0.00 in WeatherDisplay:10.37 W/m2 CLR
20:13 68.9 °F 56.2 °F 30.11 in North 3.5 mph 3.5 mph 64% 0.00 in WeatherDisplay:10.37 W/m2 CLR
20:18 68.9 °F 56.6 °F 30.11 in ENE 3.5 mph 3.5 mph 65% 0.00 in WeatherDisplay:10.37 W/m2 CLR
20:23 68.8 °F 57.0 °F 30.11 in NE 3.5 mph 3.5 mph 66% 0.00 in WeatherDisplay:10.37 W/m2 CLR
20:28 68.8 °F 57.0 °F 30.11 in North 3.5 mph 3.5 mph 66% 0.00 in WeatherDisplay:10.37 W/m2 CLR
20:33 68.7 °F 56.9 °F 30.11 in North 2.3 mph 2.3 mph 66% 0.00 in WeatherDisplay:10.37 W/m2 CLR
20:38 68.6 °F 56.8 °F 30.11 in North 2.3 mph 2.3 mph 66% 0.00 in WeatherDisplay:10.37 W/m2 CLR
20:43 68.6 °F 56.8 °F 30.11 in North 1.2 mph 1.2 mph 66% 0.00 in WeatherDisplay:10.37 W/m2 CLR
jolietwx - Weather
Compliments of Weather Underground - 2 mb